This demonstration page uses our WeatherBlox Daily Observations layout. Learn more.

38.88101, -77.10428

Hourly Observations for October 16, 2017

Temp ( °F °C ) Dew Point ( °F °C ) Humidity (%) Winds ( mph kmh ) Pressure ( in mb ) Visibility ( mi km ) Precip ( " mm )
12:52 am 00:52 Cloudy 73 22.8 68 20 84 84 W 7 11 29.9 1012 10 16.0934 0 0.0254
1:52 am 01:52 Cloudy 71 21.7 61 16.1 71 71 NNW 21 33 29.92 1013 10 16.0934 0 0
2:52 am 02:52 Cloudy with Light Rain 69 20.6 58 14.4 68 68 NNW 15 24 29.94 1014 10 16.0934 0 0.0254
3:52 am 03:52 Cloudy with Rain 63 17.2 58 14.4 84 84 NNW 10 17 29.96 1015 4 6.43736 0.04 1.016
4:52 am 04:52 Cloudy with Light Rain 63 17.2 60 15.6 90 90 NNW 7 11 29.97 1015 10 16.0934 0.03 0.762
5:52 am 05:52 Cloudy with Light Rain 63 17.2 59 15 87 87 NNW 6 9 29.98 1015 10 16.0934 0.03 0.762
6:52 am 06:52 Cloudy with Light Rain 63 17.2 55 12.8 76 76 NNW 12 19 30.01 1016 10 16.0934 0 0.0254
7:52 am 07:52 Mostly Cloudy 62 16.7 54 12.2 75 75 NW 6 9 30.02 1017 10 16.0934 0 0.0254
8:52 am 08:52 Mostly Cloudy 62 16.7 53 11.7 73 73 NW 10 17 30.06 1018 10 16.0934 0 0
9:52 am 09:52 Mostly Cloudy 62 16.7 53 11.7 73 73 NNW 12 19 30.07 1018 10 16.0934 0 0
10:52 am 10:52 Cloudy 62 16.7 47 8.3 58 58 NW 13 20 30.1 1019 10 16.0934 0 0
11:52 am 11:52 Cloudy 63 17.2 45 7.2 52 52 NNW 16 26 30.09 1019 10 16.0934 0 0
12:52 pm 12:52 Cloudy 61 16.1 44 6.7 54 54 NW 17 28 30.11 1020 10 16.0934 0 0
1:52 pm 13:52 Cloudy 64 17.8 44 6.7 48 48 NW 22 35 30.1 1019 10 16.0934 0 0
2:52 pm 14:52 Cloudy 62 16.7 41 5 46 46 NW 17 28 30.1 1019 10 16.0934 0 0
3:52 pm 15:52 Mostly Cloudy 65 18.3 38 3.3 37 37 NNW 20 31 30.11 1020 10 16.0934 0 0
4:52 pm 16:52 Partly Cloudy 65 18.3 36 2.2 34 34 NW 17 28 30.11 1020 10 16.0934 0 0
5:52 pm 17:52 Partly Cloudy 63 17.2 35 1.7 35 35 NW 17 28 30.13 1020 10 16.0934 0 0
6:52 pm 18:52 Partly Cloudy 61 16.1 36 2.2 39 39 NNW 13 20 30.15 1021 10 16.0934 0 0
7:52 pm 19:52 Partly Cloudy 59 15 36 2.2 42 42 NW 9 15 30.18 1022 10 16.0934 0 0
8:52 pm 20:52 Mostly Clear 58 14.4 36 2.2 44 44 NNW 10 17 30.21 1023 10 16.0934 0 0
9:52 pm 21:52 Clear 57 13.9 37 2.8 47 47 NW 14 22 30.23 1024 10 16.0934 0 0
10:52 pm 22:52 Clear 55 12.8 38 3.3 53 53 NNW 12 19 30.25 1024 10 16.0934 0 0
11:52 pm 23:52 Clear 54 12.2 38 3.3 55 55 NW 14 22 30.26 1025 10 16.0934 0 0

Powered by AerisWeather